DateTimeUTC,F1_A11,F1_S11,BsB_S11,BsG_S11,BsR_S11,BbsB_S11,BbsG_S11,BbsR_S11,BaB_A11,BaG_A11,BaR_A11,Tu_S11,T_S11,Uu_S11,U_S11,P_S11,T1_A11
2021-09-12T04:00:00Z,00000200,21000000,,,,,,,0000.34,0000.23,-000.02,19.1,26.2,,00.0,0664.7,31.1
2021-09-12T04:01:00Z,00000200,21000000,,,,,,,0000.05,0000.28,0000.23,19.1,26.2,,00.0,0664.7,31.1
2021-09-12T04:02:00Z,00000200,21000000,,,,,,,0000.09,0000.08,0000.05,19.2,26.2,,00.0,0664.7,31.1
2021-09-12T04:03:00Z,00000200,61000000,,,,,,,0000.06,-000.35,0000.05,19.2,26.2,,00.0,0664.7,31.1
2021-09-12T04:04:00Z,00000200,41000000,0000.47,0000.66,0000.64,-000.15,0000.14,0000.15,-000.11,0000.56,-000.01,19.6,26.2,,00.0,0665.7,31.1
2021-09-12T04:05:00Z,00000200,01000000,0000.80,0000.67,0000.83,-000.22,-000.01,0000.34,0000.17,-000.03,0000.29,19.7,26.2,,00.0,0665.7,31.1
2021-09-12T04:06:00Z,00000200,01000000,0000.43,0000.73,0000.77,0000.82,-000.17,0000.03,0000.37,0000.31,-000.05,19.7,26.2,,00.0,0665.7,31.1
2021-09-12T04:07:00Z,00000200,01000000,0001.31,0000.48,0000.55,0000.37,0000.06,0000.09,-000.10,-000.66,-000.24,19.6,26.1,,00.0,0665.7,31.1
2021-09-12T04:08:00Z,00000200,01000000,0000.57,0000.41,0000.53,0000.91,0000.38,0000.06,-000.13,-000.04,-000.15,19.5,26.1,,00.0,0665.6,31.1
2021-09-12T04:09:00Z,00000200,01000000,0000.74,0000.58,0000.67,0000.38,0000.42,0000.11,-000.25,0000.26,0000.04,19.4,26.0,,00.0,0665.6,31.0
2021-09-12T04:10:00Z,00000200,01000000,0000.34,0000.42,0000.41,0000.42,0000.07,-000.13,0000.01,-000.13,-000.07,19.3,25.9,,00.0,0665.6,31.0
2021-09-12T04:11:00Z,00000200,01000000,0000.02,0000.65,0000.77,0000.39,-000.01,0000.01,0000.14,0000.28,0000.39,19.2,25.9,,00.0,0665.5,31.0
2021-09-12T04:12:00Z,00000200,01000000,0000.60,0000.56,0000.79,0000.49,-000.01,0000.46,0000.54,0000.41,0000.17,19.2,25.8,,00.0,0665.5,31.0
2021-09-12T04:13:00Z,00000200,01000000,0000.09,0000.74,0000.89,-000.28,0000.47,0000.24,0000.38,0000.21,0000.23,19.2,25.8,,00.0,0665.6,31.0
2021-09-12T04:14:00Z,00000200,01000000,0000.83,0000.79,0000.20,0000.15,-000.07,0000.19,0000.36,0000.32,0000.60,19.3,25.9,,00.0,0665.4,31.0
2021-09-12T04:15:00Z,00000200,01000000,0001.09,0000.75,0000.57,0000.17,-000.19,0000.12,0000.07,0000.25,0000.07,19.4,25.9,,00.0,0665.4,31.1
2021-09-12T04:16:00Z,00000200,01000000,0000.97,0000.56,0000.31,0000.34,-000.16,0000.06,0000.08,0000.44,-000.15,19.4,25.9,,00.0,0665.5,31.1
2021-09-12T04:17:00Z,00000200,01000000,-000.20,0000.15,0000.58,0000.32,0000.28,0000.22,0000.59,0000.21,0000.47,19.5,25.9,,00.0,0665.4,31.1
2021-09-12T04:18:00Z,00000200,01000000,0000.53,0000.70,0000.51,0000.52,0000.44,0000.04,0000.14,0000.15,0000.07,19.5,26.0,,00.0,0665.4,31.1
2021-09-12T04:19:00Z,00000200,01000000,0000.75,0000.79,0000.60,0000.10,0000.16,-000.02,0000.13,-000.12,0000.12,19.6,26.0,,00.0,0665.4,31.1
2021-09-12T04:20:00Z,00000200,01000000,0000.26,0000.47,0000.58,-000.19,0000.24,0000.19,0000.35,0000.10,0000.30,19.7,26.0,,00.0,0665.3,31.1
2021-09-12T04:21:00Z,00000200,01000000,0001.03,0000.87,0000.54,0001.21,0000.31,0000.41,0000.09,0000.46,-000.03,19.7,26.1,,00.0,0665.4,31.1
2021-09-12T04:22:00Z,00000200,01000000,0000.36,0000.29,0000.35,0000.22,0000.03,0000.29,0000.07,0000.57,-000.00,19.7,26.1,,00.0,0665.3,31.1
2021-09-12T04:23:00Z,00000200,01000000,0000.12,0000.74,0000.50,0000.20,0000.02,-000.08,0000.15,-000.34,0000.30,19.8,26.1,,00.0,0665.3,31.1
2021-09-12T04:24:00Z,00000200,01000000,0000.78,0000.21,0000.95,0000.65,0000.17,0000.48,0000.16,0000.02,0000.11,19.7,26.1,,00.0,0665.2,31.1
2021-09-12T04:25:00Z,00000200,01000000,0000.70,0000.33,0000.76,0000.97,0000.34,0000.30,-000.46,-000.22,-000.36,19.6,26.0,,00.0,0665.2,31.0
2021-09-12T04:26:00Z,00000200,01000000,0000.21,0000.56,0000.72,0000.05,0000.35,0000.27,0000.46,0000.11,-000.00,19.5,26.0,,00.0,0665.2,31.1
2021-09-12T04:27:00Z,00000200,01000000,0000.51,0000.47,0000.63,0000.51,0000.13,-000.26,-000.01,0000.18,0000.27,19.5,25.9,,00.0,0665.3,31.0
2021-09-12T04:28:00Z,00000200,01000000,0001.12,0000.58,0000.90,-000.02,0000.04,0000.58,0000.18,0000.24,0000.41,19.5,26.0,,00.0,0665.3,31.1
2021-09-12T04:29:00Z,00000200,01000000,0000.53,0000.31,0000.58,0000.24,0000.07,0000.23,0000.44,0000.15,-000.09,19.5,26.0,,00.0,0665.2,31.1
2021-09-12T04:30:00Z,00000200,01000000,0000.21,0000.65,0000.69,-000.33,0000.29,0000.25,0000.21,0000.45,0000.48,19.6,26.0,,00.0,0665.2,31.1
2021-09-12T04:31:00Z,00000200,01000000,0001.09,0000.49,0000.62,0000.43,0000.10,0000.13,-000.04,-000.11,0000.02,19.6,26.0,,00.0,0665.3,31.1
2021-09-12T04:32:00Z,00000200,01000000,0001.19,0000.63,0000.42,-000.50,0000.18,-000.13,0000.22,0000.47,0000.04,19.7,26.1,,00.0,0665.2,31.1
2021-09-12T04:33:00Z,00000200,01000000,0001.22,0000.23,0000.86,0000.72,0000.08,0000.52,0000.04,0000.13,0000.01,19.7,26.1,,00.0,0665.2,31.1
2021-09-12T04:34:00Z,00000200,01000000,0000.86,0000.59,0000.49,0000.49,0000.09,0000.07,0000.05,0000.12,-000.06,19.8,26.1,,00.0,0665.2,31.1
2021-09-12T04:35:00Z,00000200,01000000,0000.95,0000.61,0000.86,0000.56,0000.21,0000.17,0000.24,-000.17,0000.43,19.8,26.1,,00.0,0665.2,31.1
2021-09-12T04:36:00Z,00000200,01000000,0001.01,0000.45,0000.51,0001.28,0000.26,0000.37,0000.25,0000.06,-000.24,19.8,26.1,,00.0,0665.2,31.1
2021-09-12T04:37:00Z,00000200,01000000,0001.07,0000.40,0000.24,0000.04,0000.46,-000.11,-000.15,-000.08,0000.04,19.7,26.1,,00.0,0665.1,31.1
2021-09-12T04:38:00Z,00000200,01000000,0001.01,0000.75,0001.00,0000.47,-000.02,0000.29,-000.14,-000.40,-000.18,19.6,26.0,,00.0,0665.2,31.0
2021-09-12T04:39:00Z,00000200,01000000,0000.57,0000.68,0000.62,0000.16,0000.33,0000.10,0000.07,-000.10,-000.08,19.4,25.9,,00.0,0665.1,31.0
2021-09-12T04:40:00Z,00000200,01000000,0000.90,0000.42,0000.52,0000.77,0000.25,0000.24,-000.22,0000.32,0000.04,19.3,25.9,,00.0,0665.1,31.0
2021-09-12T04:41:00Z,00000200,01000000,0001.07,0000.34,0000.73,0000.63,0000.03,0000.07,0000.75,-000.05,0000.15,19.2,25.8,,00.0,0665.0,31.0
2021-09-12T04:42:00Z,00000200,01000000,0000.12,0000.18,0000.73,0000.58,0000.42,0000.09,0000.08,0000.75,0000.37,19.2,25.8,,00.0,0665.0,31.0
2021-09-12T04:43:00Z,00000200,01000000,0000.33,0000.42,0000.54,0000.62,0000.02,0000.14,0000.27,0000.11,0000.42,19.2,25.8,,00.0,0665.0,31.0
2021-09-12T04:44:00Z,00000200,01000000,0000.07,0000.44,0000.41,0000.81,0000.23,0000.17,0000.72,0000.44,0000.24,19.3,25.8,,00.0,0665.0,31.0
2021-09-12T04:45:00Z,00000200,01000000,0000.37,0000.45,0000.46,0000.29,-000.01,0000.45,-000.04,0000.60,0000.15,19.4,25.8,,00.0,0665.0,31.0
2021-09-12T04:46:00Z,00000200,01000000,0000.63,0000.60,0000.62,0000.48,0000.06,0000.39,0000.44,-000.02,0000.13,19.4,25.9,,00.0,0665.0,31.1
2021-09-12T04:47:00Z,00000200,01000000,0000.70,0000.48,0000.70,0000.97,0000.11,-000.06,0000.07,0000.19,-000.01,19.5,25.9,,00.0,0664.9,31.1
2021-09-12T04:48:00Z,00000200,01000000,-000.06,0000.50,0000.58,-000.22,0000.40,0000.32,0000.33,0000.36,0000.35,19.5,25.9,,00.0,0665.0,31.1
2021-09-12T04:49:00Z,00000200,01000000,0000.73,0000.53,0000.56,0000.05,0000.31,0000.30,0000.01,0000.32,-000.04,19.6,26.0,,00.0,0665.0,31.1
2021-09-12T04:50:00Z,00000200,01000000,0001.68,0000.25,0000.72,0000.67,0000.21,-000.00,0000.10,-000.39,0000.49,19.6,26.0,,00.0,0665.0,31.1
2021-09-12T04:51:00Z,00000200,01000000,0001.66,0000.64,0000.71,0000.30,0000.21,0000.09,0000.09,0000.35,-000.08,19.7,26.0,,00.0,0665.1,31.1
2021-09-12T04:52:00Z,00000200,01000000,0000.24,0000.36,0000.61,0000.33,0000.20,0000.18,0000.47,0000.42,0000.13,19.7,26.1,,00.0,0665.0,31.1
2021-09-12T04:53:00Z,00000200,01000000,-000.48,0000.60,0000.46,0000.41,0000.16,0000.21,-000.09,-000.00,0000.03,19.7,26.0,,00.0,0664.9,31.1
2021-09-12T04:54:00Z,00000200,01000000,0000.56,0000.70,0000.37,0000.87,0000.15,0000.15,0000.07,-000.67,-000.05,19.6,26.0,,00.0,0665.0,31.1
2021-09-12T04:55:00Z,00000200,01000000,0000.27,0000.76,0000.47,0000.41,0000.32,0000.11,-000.36,0000.02,-000.06,19.5,25.9,,00.0,0664.9,31.0
2021-09-12T04:56:00Z,00000200,01000000,0000.45,0000.71,0000.53,0000.39,0000.29,0000.31,0000.26,0000.04,-000.14,19.4,25.9,,00.0,0665.0,31.0
2021-09-12T04:57:00Z,00000200,41000000,,,,,,,0000.16,0000.43,0000.32,19.4,25.9,,00.0,0664.8,31.0
2021-09-12T04:58:00Z,00000200,61000000,,,,,,,0000.36,0000.34,0000.06,19.1,26.0,,00.0,0663.9,31.0
2021-09-12T04:59:00Z,00000200,21000000,,,,,,,-000.01,0000.02,-000.10,19.1,26.1,,00.0,0663.9,31.0
